GW5538 Weather Reports


time (UTC)temp
F
wind
direction
speed
knots
gust
knots
rain 1hr
in
rain 24hr
in
rain mn
in
humidity
%
barometer
mb
20260906035423 53 260 4.3 6.1 0.00 0.06 0.06 95 1007.5
20260906034919 53 317 2.6 5.2 0.00 0.06 0.06 95 1007.5
20260906034419 53 221 2.6 6.1 0.00 0.06 0.06 95 1007.6
20260906033915 52 266 5.2 6.1 0.00 0.06 0.06 95 1007.8
20260906033414 52 230 3.5 6.1 0.00 0.06 0.06 95 1007.5
20260906032910 52 265 3.5 7.8 0.00 0.06 0.06 95 1007.4
20260906032406 52 243 5.2 7.0 0.00 0.06 0.06 95 1007.3
20260906031900 52 198 3.5 7.8 0.00 0.06 0.06 95 1007.4
20260906031356 52 228 5.2 8.7 0.00 0.06 0.06 95 1007.3
20260906030851 52 174 1.7 7.8 0.00 0.06 0.06 95 1007.2
20260906030346 52 306 4.3 6.1 0.00 0.06 0.06 95 1007.2
20260906025840 52 225 2.6 7.0 0.00 0.06 0.06 95 1006.9
20260906025334 52 200 2.6 3.5 0.00 0.06 0.06 95 1007.3
20260906024833 52 151 2.6 7.0 0.00 0.06 0.06 94 1007.0
20260906024333 52 292 3.5 5.2 0.00 0.06 0.06 94 1007.0
20260906023828 52 261 6.1 7.8 0.00 0.06 0.06 94 1006.9
20260906023325 53 257 3.5 5.2 0.00 0.06 0.06 94 1006.8
20260906022820 53 294 4.3 6.1 0.07 0.06 0.06 94 1007.0
20260906022315 53 225 3.5 7.0 0.07 0.06 0.06 94 1006.9
20260906021811 53 254 4.3 6.1 0.12 0.05 0.05 94 1006.7
20260906021310 53 273 4.3 11.3 0.24 0.05 0.05 93 1007.0
20260906020809 53 253 9.6 11.3 0.17 0.03 0.03 93 1006.8
20260906020309 53 257 5.2 8.7 0.05 0.01 0.01 93 1006.7
20260906015804 53 274 2.6 6.1 0.00 0.00 0.00 93 1006.6
20260906015305 53 223 3.5 6.1 0.00 0.00 0.00 93 1006.4
20260906014757 53 255 2.6 6.1 0.00 0.00 0.00 93 1006.6
20260906014253 53 242 3.5 7.8 0.00 0.00 0.00 93 1006.6
20260906013749 54 222 5.2 6.1 0.00 0.00 0.00 93 1006.7
20260906013249 54 237 3.5 6.1 0.00 0.00 0.00 92 1006.8
20260906012744 54 18 2.6 5.2 0.00 0.00 0.00 93 1006.8
20260906012239 54 277 5.2 9.6 0.00 0.00 0.00 93 1006.6
20260906011734 54 266 4.3 6.1 0.00 0.00 0.00 93 1006.7
20260906011234 54 297 4.3 9.6 0.00 0.00 0.00 93 1006.6
20260906010730 54 259 6.1 7.8 0.00 0.00 0.00 93 1006.8
20260906010226 54 309 2.6 6.1 0.00 0.00 0.00 93 1006.6
20260906005721 54 92 2.6 6.1 0.00 0.00 0.00 93 1006.7
20260906005220 54 246 7.0 8.7 0.00 0.00 0.00 93 1006.6
20260906004719 53 261 2.6 7.8 0.00 0.00 0.00 93 1006.6
20260906004214 53 309 3.5 8.7 0.00 0.00 0.00 93 1006.7
20260906003709 53 210 5.2 8.7 0.00 0.00 0.00 92 1006.6
20260906003205 53 232 6.1 7.8 0.00 0.00 0.00 92 1006.6
20260906002705 54 243 7.8 9.6 0.00 0.00 0.00 92 1006.8
20260906002200 54 220 3.5 7.0 0.00 0.00 0.00 92 1006.6
20260906001655 54 232 3.5 3.5 0.00 0.00 0.00 92 1006.7
20260906001155 54 267 4.3 9.6 0.00 0.00 0.00 91 1006.6
20260906000651 54 271 3.5 8.7 0.00 0.00 0.00 91 1006.6
20260906000146 54 53 3.5 8.7 0.00 0.00 0.00 91 1006.6
20260905235645 54 245 7.0 8.7 0.00 0.00 0.00 91 1006.5
20260905235140 54 245 5.2 7.8 0.00 0.00 0.00 91 1006.6
20260905234635 54 260 6.1 7.8 0.00 0.00 0.00 91 1006.5
20260905234132 54 238 5.2 9.6 0.00 0.00 0.00 91 1006.5
20260905233632 54 266 5.2 7.0 0.00 0.00 0.00 91 1006.8
20260905233125 54 257 3.5 8.7 0.00 0.00 0.00 91 1006.6
20260905232621 54 260 5.2 11.3 0.00 0.00 0.00 91 1006.8
20260905232117 54 269 5.2 9.6 0.00 0.00 0.00 91 1006.8
20260905231617 54 233 3.5 7.0 0.00 0.00 0.00 91 1006.5
20260905231113 54 281 5.2 9.6 0.00 0.00 0.00 91 1006.4
20260905230609 54 242 6.1 7.8 0.00 0.00 0.00 91 1006.6
20260905230107 54 270 5.2 7.0 0.00 0.00 0.00 91 1006.6
20260905225606 54 267 3.5 9.6 0.00 0.00 0.00 91 1006.6
20260905225101 54 268 5.2 8.7 0.00 0.00 0.00 91 1006.6
20260905224601 54 253 6.1 7.8 0.00 0.00 0.00 91 1006.5
20260905224101 54 16 5.2 7.8 0.00 0.00 0.00 91 1006.8
20260905223558 54 249 5.2 9.6 0.00 0.00 0.00 91 1006.7
20260905223054 54 284 5.2 9.6 0.00 0.00 0.00 91 1006.5
20260905222554 54 318 5.2 7.0 0.00 0.00 0.00 91 1006.6
20260905222049 54 246 1.7 8.7 0.00 0.00 0.00 90 1006.5
20260905221545 54 293 3.5 7.0 0.00 0.00 0.00 90 1006.6
20260905221042 55 279 4.3 8.7 0.00 0.00 0.00 90 1006.7
20260905220537 55 247 4.3 8.7 0.00 0.00 0.00 90 1006.4
20260905220033 55 227 7.8 8.7 0.00 0.00 0.00 90 1006.5
20260905215532 55 264 5.2 8.7 0.00 0.00 0.00 90 1006.6
20260905215029 55 277 6.1 7.8 0.00 0.00 0.00 90 1006.6
20260905214524 55 190 1.7 7.0 0.00 0.00 0.00 90 1006.7
20260905214019 55 236 3.5 7.8 0.00 0.00 0.00 90 1006.7
20260905213514 55 283 2.6 8.7 0.00 0.00 0.00 90 1006.7
20260905213010 55 246 5.2 9.6 0.00 0.00 0.00 90 1006.6
20260905212505 55 205 7.8 11.3 0.00 0.00 0.00 90 1006.7
20260905212004 55 238 7.0 8.7 0.00 0.00 0.00 91 1006.8
20260905211459 55 339 1.7 8.7 0.00 0.00 0.00 91 1006.8
20260905210955 54 241 4.3 8.7 0.00 0.00 0.00 91 1006.6
20260905210450 55 326 3.5 9.6 0.00 0.00 0.00 91 1006.8
20260905205949 55 331 2.6 7.8 0.00 0.46 0.46 91 1006.6
20260905205444 55 304 3.5 12.2 0.00 0.46 0.46 91 1006.7
20260905204943 55 238 3.5 9.6 0.00 0.46 0.46 91 1006.6
20260905204439 55 254 5.2 7.8 0.00 0.46 0.46 91 1006.7
20260905203938 55 239 3.5 8.7 0.00 0.46 0.46 91 1006.7
20260905203434 55 225 4.3 9.6 0.00 0.46 0.46 91 1006.6
20260905202930 55 248 5.2 7.8 0.00 0.46 0.46 91 1006.6
20260905202425 55 208 4.3 7.8 0.00 0.46 0.46 91 1006.7
20260905201920 55 258 5.2 7.8 0.00 0.46 0.46 91 1006.6
20260905201416 55 257 5.2 11.3 0.00 0.46 0.46 91 1006.5
20260905200915 55 236 4.3 7.8 0.00 0.46 0.46 91 1006.5
20260905200411 55 297 4.3 11.3 0.00 0.46 0.46 91 1006.4
20260905195909 55 258 5.2 8.7 0.00 0.46 0.46 91 1006.6
20260905195404 55 247 9.6 13.0 0.00 0.46 0.46 91 1006.5
20260905194900 55 205 3.5 7.0 0.00 0.46 0.46 91 1006.7
20260905194359 55 229 6.1 13.0 0.00 0.46 0.46 91 1006.4
20260905193854 55 252 4.3 9.6 0.00 0.46 0.46 91 1006.6
20260905193354 55 208 5.2 8.7 0.00 0.46 0.46 91 1006.8
20260905192849 55 225 6.1 7.0 0.00 0.46 0.46 91 1006.7
20260905192345 55 222 4.3 7.0 0.00 0.46 0.46 91 1006.7
20260905191845 55 209 7.0 8.7 0.00 0.46 0.46 91 1006.5
20260905191344 55 211 6.1 12.2 0.00 0.46 0.46 91 1006.6
20260905190843 55 243 5.2 8.7 0.00 0.46 0.46 91 1006.6
20260905190342 56 248 3.5 7.8 0.00 0.46 0.46 91 1006.4
20260905185841 56 230 5.2 6.1 0.00 0.46 0.46 91 1006.4
20260905185337 55 255 8.7 13.0 0.00 0.46 0.46 91 1006.4
20260905184835 55 320 5.2 9.6 0.00 0.46 0.46 91 1006.3
20260905184335 55 237 4.3 11.3 0.00 0.46 0.46 91 1006.4
20260905183833 56 260 8.7 9.6 0.00 0.46 0.46 91 1006.4
20260905183329 56 213 7.0 8.7 0.00 0.46 0.46 91 1006.3
20260905182830 56 266 6.1 12.2 0.00 0.46 0.46 91 1006.4
20260905182329 56 206 5.2 13.9 0.00 0.46 0.46 91 1006.5
20260905181825 56 271 10.4 13.9 0.00 0.46 0.46 91 1006.4
20260905181324 56 242 5.2 12.2 0.00 0.46 0.46 91 1006.5
20260905180823 56 254 4.3 7.0 0.00 0.46 0.46 91 1006.5
20260905180319 56 273 5.2 11.3 0.00 0.46 0.46 90 1006.2
20260905175814 56 251 4.3 11.3 0.00 0.46 0.46 90 1006.6
20260905175308 56 286 5.2 8.7 0.00 0.46 0.46 91 1006.4
20260905174803 56 277 7.0 8.7 0.00 0.46 0.46 90 1006.3
20260905174259 56 242 7.0 11.3 0.00 0.46 0.46 91 1006.2
20260905173755 56 236 3.5 7.8 0.00 0.46 0.46 90 1006.0
20260905173251 57 249 5.2 11.3 0.00 0.46 0.46 90 1006.1
20260905172750 57 213 5.2 11.3 0.00 0.46 0.46 90 1006.1
20260905172249 56 277 6.1 11.3 0.00 0.46 0.46 91 1006.1
20260905171745 56 230 7.0 9.6 0.00 0.46 0.46 91 1006.1
20260905171241 56 232 5.2 8.7 0.00 0.46 0.46 92 1006.1
20260905170738 56 226 4.3 8.7 0.00 0.46 0.46 91 1006.0
20260905170233 56 231 4.3 8.7 0.00 0.46 0.46 91 1005.8
20260905165732 56 248 7.0 8.7 0.00 0.46 0.46 91 1005.8
20260905165228 56 234 4.3 13.0 0.00 0.46 0.46 91 1005.7
20260905164727 56 227 5.2 7.8 0.00 0.46 0.46 91 1006.0
20260905164222 56 236 4.3 9.6 0.00 0.46 0.46 91 1005.8
20260905163718 56 216 7.8 11.3 0.00 0.46 0.46 91 1005.9
20260905163214 56 250 6.1 11.3 0.00 0.46 0.46 91 1005.6
20260905162711 56 233 6.1 9.6 0.00 0.46 0.46 91 1005.7
20260905162210 57 198 5.2 9.6 0.00 0.46 0.46 91 1005.6
20260905161705 57 234 8.7 9.6 0.00 0.46 0.46 91 1005.5
20260905161203 57 250 5.2 8.7 0.00 0.46 0.46 90 1005.6
20260905160702 57 15 3.5 8.7 0.00 0.46 0.46 90 1005.4
20260905160201 57 261 9.6 13.0 0.00 0.46 0.46 91 1005.4
20260905155656 57 214 5.2 7.8 0.00 0.46 0.46 91 1005.4
20260905155155 57 228 5.2 8.7 0.00 0.46 0.46 90 1005.3
20260905154649 57 94 1.7 7.8 0.07 0.46 0.46 90 1005.3
20260905154145 57 264 8.7 13.9 0.38 0.46 0.46 89 1005.5
20260905153641 57 268 5.2 11.3 0.42 0.45 0.45 90 1005.3
20260905153136 57 245 8.7 11.3 0.17 0.40 0.40 89 1005.0
20260905152631 57 255 5.2 12.2 0.05 0.38 0.38 89 1005.1
20260905152125 58 261 6.1 8.7 0.00 0.37 0.37 88 1005.1
20260905151620 58 325 7.8 13.9 0.00 0.37 0.37 88 1004.9
20260905151116 58 241 3.5 9.6 0.00 0.37 0.37 88 1004.9
20260905150611 58 270 5.2 8.7 0.07 0.37 0.37 87 1005.0
20260905150110 58 243 7.8 12.2 0.07 0.37 0.37 86 1004.9
20260905145608 58 252 6.1 9.6 0.00 0.36 0.36 86 1005.0
20260905145102 58 300 5.2 9.6 0.00 0.36 0.36 86 1004.9
20260905144557 58 275 7.0 8.7 0.00 0.36 0.36 88 1005.0
20260905144056 57 227 4.3 11.3 0.00 0.36 0.36 88 1004.9
20260905143555 57 285 6.1 11.3 0.00 0.36 0.36 88 1004.8
20260905143051 57 297 4.3 13.0 0.00 0.36 0.36 87 1004.9
20260905142550 58 259 7.8 13.9 0.00 0.36 0.36 87 1004.8
20260905142049 57 237 5.2 11.3 0.05 0.36 0.36 89 1004.8
20260905141544 57 259 8.7 13.0 0.12 0.36 0.36 87 1004.7
20260905141041 57 286 9.6 11.3 0.07 0.35 0.35 86 1004.6
20260905140541 58 263 9.6 14.8 0.00 0.34 0.34 85 1004.8
20260905140040 58 250 9.6 13.0 0.05 0.34 0.34 85 1004.5
20260905135536 58 252 8.7 25.2 0.05 0.34 0.34 85 1004.4
20260905135037 59 313 7.0 19.1 0.00 0.33 0.33 83 1004.3
20260905134537 60 286 11.3 13.9 0.00 0.33 0.33 83 1004.2
20260905134035 60 257 4.3 9.6 0.00 0.33 0.33 83 1003.9
20260905133531 60 266 3.5 13.0 0.00 0.33 0.33 83 1003.6
20260905133030 60 260 5.2 12.2 0.07 0.33 0.33 82 1003.7
20260905132530 60 246 7.0 11.3 0.07 0.33 0.33 83 1003.6
20260905132025 60 244 4.3 12.2 0.00 0.32 0.32 84 1003.6
20260905131521 60 234 5.2 16.5 0.00 0.32 0.32 83 1003.4
20260905131016 61 290 7.8 9.6 0.00 0.32 0.32 82 1003.4
20260905130515 61 252 7.0 9.6 0.00 0.32 0.32 82 1003.5
20260905130010 61 241 7.8 13.0 0.00 0.32 0.32 83 1003.3
20260905125504 61 273 7.8 13.0 0.00 0.32 0.32 82 1003.3
20260905125000 61 281 6.1 12.2 0.00 0.32 0.32 82 1003.4
20260905124457 61 228 6.1 14.8 0.00 0.32 0.32 83 1003.3
20260905123952 60 247 4.3 8.7 0.00 0.32 0.32 88 1003.4
20260905123448 59 223 2.6 9.6 0.00 0.32 0.32 87 1003.4
20260905122949 59 245 7.8 13.0 0.00 0.32 0.32 86 1003.5
20260905122448 60 238 4.3 9.6 0.00 0.32 0.32 85 1003.4
20260905121944 60 229 6.1 14.8 0.00 0.32 0.32 84 1003.3
20260905121439 61 292 7.8 12.2 0.00 0.32 0.32 81 1003.3
20260905120938 61 251 12.2 15.6 0.00 0.32 0.32 78 1003.2
20260905120433 61 225 7.0 8.7 0.00 0.32 0.32 78 1003.3
20260905115928 61 249 8.7 14.8 0.00 0.32 0.32 77 1003.0
20260905115427 61 239 5.2 13.0 0.00 0.32 0.32 78 1002.9
20260905114922 61 227 5.2 14.8 0.00 0.32 0.32 79 1003.1
20260905114416 61 271 10.4 15.6 0.00 0.32 0.32 79 1003.2
20260905113915 61 230 12.2 15.6 0.00 0.32 0.32 78 1002.9
20260905113410 62 249 8.7 14.8 0.00 0.32 0.32 78 1003.1
20260905112906 61 304 7.8 15.6 0.00 0.32 0.32 79 1003.0
20260905112401 61 323 13.9 15.6 0.00 0.32 0.32 79 1003.1
20260905111851 62 242 5.2 12.2 0.00 0.32 0.32 81 1002.9
20260905111350 61 235 7.8 12.2 0.00 0.32 0.32 81 1003.0
20260905110850 60 243 7.0 15.6 0.00 0.32 0.32 80 1002.9
20260905110350 61 261 6.1 18.2 0.00 0.32 0.32 78 1003.0
20260905105845 60 246 8.7 13.9 0.00 0.32 0.32 79 1003.0
20260905105344 60 251 9.6 18.2 0.00 0.32 0.32 81 1002.9
20260905104838 59 256 13.0 18.2 0.00 0.32 0.32 82 1003.0
20260905104335 60 247 11.3 18.2 0.00 0.32 0.32 82 1002.7
20260905103834 60 254 11.3 14.8 0.00 0.32 0.32 81 1002.7
20260905103330 61 247 8.7 18.2 0.00 0.32 0.32 80 1002.6
20260905102826 61 246 7.0 13.9 0.00 0.32 0.32 80 1002.5
20260905102322 61 269 9.6 20.0 0.00 0.32 0.32 79 1002.5
20260905101817 62 270 15.6 19.1 0.00 0.32 0.32 80 1002.3
20260905101315 61 250 12.2 20.0 0.00 0.32 0.32 80 1002.1
20260905100815 62 262 12.2 15.6 0.00 0.32 0.32 79 1002.0
20260905100311 62 221 7.8 13.0 0.00 0.32 0.32 78 1002.0
20260905095811 62 248 11.3 16.5 0.00 0.32 0.32 80 1002.0
20260905095310 61 246 9.6 13.9 0.00 0.32 0.32 81 1002.2
20260905094805 61 258 8.7 13.9 0.00 0.32 0.32 82 1002.0
20260905094301 61 297 7.8 13.9 0.00 0.32 0.32 81 1001.8
20260905093800 62 278 11.3 18.2 0.00 0.32 0.32 80 1001.7
20260905093255 60 265 7.0 12.2 0.00 0.32 0.32 85 1001.7
20260905092751 60 223 5.2 13.9 0.00 0.32 0.32 86 1001.8
20260905092246 59 256 8.7 13.0 0.00 0.32 0.32 87 1001.7
20260905091746 59 183 5.2 13.0 0.00 0.32 0.32 88 1001.8
20260905091241 59 264 7.8 13.9 0.00 0.32 0.32 88 1001.6
20260905090740 59 279 7.0 11.3 0.00 0.32 0.32 88 1001.7
20260905090237 59 256 5.2 13.0 0.00 0.32 0.32 87 1001.3
20260905085736 60 246 6.1 15.6 0.00 0.32 0.32 87 1001.6
20260905085236 59 274 5.2 13.9 0.00 0.32 0.32 87 1001.5
20260905084735 60 280 10.4 18.2 0.00 0.32 0.32 87 1001.4
20260905084235 60 293 7.8 16.5 0.00 0.32 0.32 88 1001.3
20260905083730 60 297 7.0 13.0 0.12 0.32 0.32 89 1001.2
20260905083226 59 324 8.7 20.0 0.12 0.32 0.32 87 1000.9
20260905082722 60 283 9.6 15.6 0.00 0.30 0.30 84 1000.8
20260905082218 60 230 11.3 20.0 0.00 0.30 0.30 84 1000.8
20260905081718 60 251 11.3 19.1 0.00 0.30 0.30 84 1000.8
20260905081213 60 277 10.4 19.1 0.00 0.30 0.30 84 1000.5
20260905080713 61 243 10.4 13.9 0.00 0.30 0.30 84 1000.8
20260905080212 60 287 8.7 13.0 0.00 0.30 0.30 85 1000.4
20260905075712 60 273 9.6 26.1 0.00 0.30 0.30 85 1000.4
20260905075211 60 265 7.0 14.8 0.00 0.30 0.30 86 1000.2
20260905074710 60 335 6.1 13.9 0.00 0.30 0.30 88 1000.4
20260905074206 59 226 6.1 9.6 0.00 0.30 0.30 89 1000.1
20260905073702 59 303 5.2 8.7 0.00 0.30 0.30 89 1000.1
20260905073157 59 247 6.1 14.8 0.00 0.30 0.30 91 999.9
20260905072656 59 275 4.3 12.2 0.00 0.30 0.30 90 1000.1
20260905072151 59 250 11.3 13.0 0.00 0.30 0.30 91 999.9
20260905071648 59 258 6.1 12.2 0.00 0.30 0.30 91 999.9
20260905071143 58 238 4.3 12.2 0.00 0.30 0.30 91 999.9
20260905070638 58 262 10.4 13.0 0.00 0.30 0.30 92 999.7
20260905070134 58 252 6.1 20.0 0.00 0.30 0.30 92 999.9
20260905065633 58 264 6.1 11.3 0.00 0.30 0.30 91 999.7
20260905065127 58 218 5.2 7.8 0.00 0.30 0.30 91 999.9
20260905064623 58 248 7.8 11.3 0.00 0.30 0.30 91 999.6
20260905064118 58 252 3.5 7.0 0.00 0.30 0.30 92 999.7
20260905063616 58 297 3.5 5.2 0.00 0.30 0.30 92 999.6
20260905063113 57 246 3.5 6.1 0.00 0.30 0.30 92 999.5
20260905062609 57 259 3.5 7.8 0.00 0.30 0.30 93 999.5
20260905062108 57 208 6.1 7.8 0.00 0.30 0.30 93 999.4
20260905061603 57 225 4.3 7.0 0.00 0.30 0.30 94 999.3
20260905061102 57 260 3.5 6.1 0.00 0.30 0.30 94 999.4
20260905060558 57 254 5.2 7.0 0.00 0.30 0.30 95 999.3
20260905060054 57 258 4.3 7.0 0.00 0.30 0.30 95 999.2
20260905055552 57 300 4.3 12.2 0.07 0.30 0.30 96 999.2
20260905055048 57 259 6.1 7.0 0.07 0.30 0.30 96 999.2
20260905054543 57 237 5.2 7.0 0.05 0.29 0.29 96 999.6
20260905054039 57 257 7.0 8.7 0.05 0.29 0.29 96 999.2
20260905053538 57 244 7.8 9.6 0.00 0.28 0.28 96 998.9
20260905053034 57 236 5.2 8.7 0.00 0.28 0.28 97 998.9
20260905052533 57 227 7.0 7.8 0.07 0.28 0.28 96 998.8
20260905052028 57 246 3.5 7.0 0.05 0.27 0.27 96 998.8
20260905051523 56 210 4.3 6.1 0.28 0.27 0.27 97 998.8
20260905051020 56 204 2.6 5.2 0.38 0.26 0.26 96 998.8
20260905050516 56 241 3.5 6.1 0.19 0.22 0.22 96 998.8
20260905050013 56 208 3.5 3.5 0.12 0.20 0.20 96 998.8
20260905045507 56 213 3.5 5.2 0.07 0.19 0.19 96 998.9
20260905045003 56 219 3.5 6.1 0.05 0.18 0.18 96 999.0
20260905044503 56 243 4.3 7.0 0.05 0.18 0.18 96 998.9
20260905043957 56 232 2.6 6.1 0.00 0.17 0.17 96 998.8
20260905043456 56 221 3.5 6.1 0.00 0.17 0.17 96 998.8
20260905042951 56 285 5.2 7.8 0.00 0.17 0.17 97 998.9
20260905042450 56 241 3.5 6.1 0.00 0.17 0.17 97 998.9
20260905041945 56 241 6.1 9.6 0.00 0.17 0.17 97 998.9
20260905041441 56 224 7.0 9.6 0.00 0.17 0.17 97 998.9
20260905040936 56 233 5.2 7.0 0.00 0.17 0.17 97 999.1
20260905040436 56 277 2.6 3.5 0.00 0.17 0.17 97 998.9
20260905035935 55 223 4.3 6.1 0.00 0.17 0.17 97 999.0